"startDT [UTC]","vpos","CH4 [ppm]","stdev(CH4) [ppm]","CO2 [ppm]","stdev(CO2) [ppm]","H2O [ppm]","stdev(H2O)","p_LGR [torr]","T_LGR [C]","mt1_LGR [us]","mt2_LGR [us]","T_ECpre [C]","T_EC1 [C]","T_EC2 [C]","p_inlet [hPa]","p_in [hPa]","p_out [hPa]","T_inlet [C]","RH_inlet [%]","dwpt_inlet [C]","T_vent [C]","RH_vent [%]","dwpt_vent [C]","flow_vent [l min-1]","flow_inlet [l min-1]","dwpt_sample [C]","T_room [C]"
2012-04-08 00:00:00,0.0,1.9249,0.0009,402.03,0.21,49.3,35.6,138.13,28.26,24.61,36.32,0.04,-272.73,-272.73,-51,554,-927,22.8,3.0,-24.7,22.8,3.1,-24.2,5.73,2.44,-27.2,25.9
2012-04-08 00:01:00,0.0,1.9244,0.0011,402.15,0.19,41.9,28.9,138.14,28.24,24.61,36.31,0.04,-272.74,-272.74,-51,554,-927,22.7,3.0,-24.7,22.7,3.1,-24.3,5.73,2.44,-27.3,25.7
2012-04-08 00:02:00,0.0,1.9240,0.0010,402.09,0.20,39.3,33.6,138.14,28.22,24.61,36.31,0.04,-272.74,-272.74,-51,553,-927,22.7,3.0,-24.6,22.7,3.1,-24.3,5.73,2.39,-27.5,25.6
2012-04-08 00:03:00,0.0,1.9239,0.0011,402.14,0.21,19.1,26.6,138.14,28.20,24.61,36.31,0.04,-272.74,-272.74,-52,553,-927,22.6,3.0,-24.6,22.6,3.1,-24.3,5.73,2.35,-27.6,25.4
2012-04-08 00:04:00,0.0,1.9241,0.0009,402.11,0.24,23.5,28.3,138.15,28.17,24.61,36.32,0.04,-272.74,-272.73,-52,553,-927,22.6,3.1,-24.5,22.5,3.1,-24.3,5.73,2.31,-27.7,25.5
2012-04-08 00:05:00,0.0,1.9236,0.0010,402.15,0.22,15.2,21.9,138.15,28.15,24.61,36.31,0.04,-272.73,-272.73,-52,553,-927,22.6,3.1,-24.6,22.5,3.2,-24.2,5.73,2.36,-27.7,26.0
2012-04-08 00:06:00,0.0,1.9233,0.0010,402.14,0.21,22.5,28.2,138.15,28.13,24.61,36.31,0.04,-272.74,-272.73,-52,552,-927,22.5,3.1,-24.6,22.5,3.2,-24.2,5.73,2.46,-27.7,26.4
2012-04-08 00:07:00,0.0,1.9235,0.0008,402.04,0.21,27.0,28.4,138.14,28.12,24.61,36.31,0.04,-272.73,-272.73,-52,552,-927,22.5,3.1,-24.6,22.5,3.2,-24.2,5.73,2.30,-27.6,26.6
2012-04-08 00:08:00,0.0,1.9237,0.0010,402.10,0.22,25.7,32.4,138.14,28.11,24.61,36.31,0.04,-272.73,-272.74,-52,552,-927,22.5,3.1,-24.6,22.6,3.2,-24.2,5.73,2.41,-27.5,26.8
2012-04-08 00:09:00,0.0,1.9234,0.0011,401.96,0.23,33.4,30.9,138.13,28.11,24.61,36.32,0.04,-272.74,-272.74,-50,553,-926,22.5,3.1,-24.6,22.6,3.2,-24.2,5.73,2.42,-27.4,27.0
2012-04-08 00:10:00,0.0,1.9238,0.0013,401.89,0.19,33.3,32.8,138.13,28.11,24.61,36.31,0.04,-272.74,-272.74,-52,552,-927,22.5,3.1,-24.6,22.6,3.1,-24.2,5.73,2.28,-27.3,27.1
2012-04-08 00:11:00,0.0,1.9234,0.0009,402.00,0.24,49.3,33.2,138.13,28.11,24.61,36.30,0.04,-272.74,-272.74,-52,552,-926,22.5,3.1,-24.5,22.6,3.1,-24.2,5.73,2.44,-27.3,27.2
2012-04-08 00:12:00,0.0,1.9235,0.0011,401.87,0.19,49.7,36.6,138.13,28.11,24.61,36.32,0.04,-272.74,-272.74,-51,551,-926,22.6,3.1,-24.6,22.7,3.1,-24.2,5.73,2.39,-27.2,27.3
2012-04-08 00:13:00,0.0,1.9236,0.0007,401.85,0.24,59.5,35.9,138.12,28.12,24.61,36.32,0.04,-272.74,-272.74,-51,552,-926,22.6,3.1,-24.6,22.7,3.2,-24.1,5.73,2.29,-27.2,27.3
2012-04-08 00:14:00,0.0,1.9235,0.0012,401.75,0.22,74.5,34.5,138.12,28.13,24.61,36.32,0.04,-272.73,-272.73,-52,552,-927,22.6,3.1,-24.5,22.7,3.1,-24.2,5.73,2.44,-27.0,27.4
2012-04-08 00:15:00,0.0,1.9230,0.0010,401.83,0.21,63.6,35.3,138.12,28.14,24.61,36.32,0.04,-272.74,-272.74,-51,552,-926,22.6,3.1,-24.5,22.7,3.2,-24.1,5.73,2.40,-27.0,27.4
2012-04-08 00:16:00,0.0,1.9228,0.0011,401.84,0.25,82.4,42.8,138.12,28.15,24.61,36.32,0.04,-272.73,-272.74,-51,552,-926,22.6,3.1,-24.5,22.7,3.2,-24.0,5.73,2.29,-26.9,27.5
2012-04-08 00:17:00,0.0,1.9222,0.0013,401.86,0.22,83.4,38.9,138.12,28.16,24.61,36.32,0.04,-272.74,-272.74,-51,552,-926,22.6,3.1,-24.4,22.8,3.2,-24.0,5.73,2.41,-26.9,27.5
2012-04-08 00:18:00,0.0,1.9233,0.0010,401.91,0.20,89.0,37.2,138.11,28.17,24.61,36.32,0.04,-272.73,-272.74,-51,552,-927,22.7,3.1,-24.4,22.8,3.2,-24.0,5.73,2.43,-26.8,27.6
2012-04-08 00:19:00,0.0,1.9229,0.0010,401.81,0.24,88.4,39.9,138.11,28.18,24.61,36.32,0.04,-272.73,-272.73,-52,553,-926,22.7,3.1,-24.4,22.8,3.2,-23.9,5.73,2.30,-26.7,27.6
2012-04-08 00:20:00,0.0,1.9210,0.0013,401.71,0.21,93.5,36.6,138.11,28.19,24.61,36.33,0.04,-272.74,-272.74,-51,552,-926,22.7,3.1,-24.3,22.8,3.2,-23.9,5.73,2.37,-26.7,27.6
2012-04-08 00:21:00,0.0,1.9199,0.0011,401.68,0.19,101.9,38.5,138.11,28.20,24.61,36.33,0.04,-272.74,-272.74,-51,553,-926,22.7,3.1,-24.3,22.8,3.2,-23.8,5.73,2.45,-26.6,27.6
2012-04-08 00:22:00,0.0,1.9201,0.0009,401.72,0.25,106.3,36.8,138.11,28.21,24.61,36.33,0.04,-272.74,-272.74,-51,552,-926,22.7,3.1,-24.2,22.9,3.2,-23.7,5.73,2.31,-26.6,27.7
2012-04-08 00:23:00,0.0,1.9204,0.0009,401.76,0.22,101.3,44.4,138.11,28.23,24.61,36.33,0.04,-272.74,-272.73,-51,552,-926,22.8,3.1,-24.1,22.9,3.2,-23.7,5.73,2.34,-26.5,27.8
2012-04-08 00:24:00,0.0,1.9204,0.0010,401.78,0.24,114.8,33.0,138.11,28.24,24.61,36.33,0.04,-272.73,-272.74,-51,553,-926,22.8,3.1,-24.1,22.9,3.3,-23.6,5.73,2.44,-26.5,27.9
2012-04-08 00:25:00,0.0,1.9203,0.0010,401.72,0.25,112.2,34.3,138.11,28.25,24.61,36.33,0.04,-272.74,-272.74,-51,553,-926,22.9,3.1,-24.0,22.9,3.3,-23.6,5.73,2.35,-26.4,27.9
2012-04-08 00:26:00,0.0,1.9211,0.0009,401.76,0.24,115.3,40.2,138.10,28.26,24.61,36.33,0.04,-272.73,-272.74,-51,553,-926,22.9,3.2,-24.0,23.0,3.3,-23.6,5.73,2.30,-26.4,27.9
2012-04-08 00:27:00,0.0,1.9218,0.0011,401.88,0.20,125.0,38.1,138.10,28.28,24.61,36.33,0.04,-272.74,-272.74,-51,553,-926,22.9,3.1,-24.1,23.0,3.2,-23.6,5.73,2.43,-26.3,27.9
2012-04-08 00:28:00,0.0,1.9213,0.0009,401.80,0.23,122.4,37.3,138.10,28.29,24.61,36.33,0.04,-272.74,-272.73,-51,553,-926,22.9,3.1,-24.1,23.0,3.2,-23.7,5.73,2.40,-26.3,27.9
2012-04-08 00:29:00,0.0,1.9222,0.0009,401.95,0.19,123.9,33.5,138.11,28.30,24.61,36.32,0.04,-272.74,-272.74,-51,554,-926,22.9,3.1,-24.3,23.1,3.2,-23.8,5.73,2.28,-26.3,27.4
2012-04-08 00:30:00,0.0,1.9221,0.0012,401.86,0.23,114.1,42.6,138.11,28.31,24.61,36.33,0.04,-272.73,-272.74,-51,554,-926,22.9,3.0,-24.4,23.0,3.1,-23.9,5.73,2.42,-26.4,26.9
2012-04-08 00:31:00,0.0,1.9222,0.0010,401.83,0.23,94.7,37.8,138.12,28.30,24.61,36.33,0.04,-272.73,-272.73,-51,554,-927,22.9,3.0,-24.5,23.0,3.1,-24.1,5.73,2.45,-26.6,26.5
2012-04-08 00:32:00,0.0,1.9217,0.0015,401.87,0.25,81.8,46.6,138.12,28.30,24.61,36.32,0.04,-272.73,-272.74,-52,554,-927,22.9,3.0,-24.5,22.9,3.1,-24.1,5.73,2.32,-26.7,26.3
2012-04-08 00:33:00,0.0,1.9204,0.0012,401.80,0.22,73.3,35.0,138.13,28.29,24.61,36.32,0.04,-272.73,-272.73,-51,554,-927,22.9,3.0,-24.5,22.9,3.1,-24.1,5.73,2.31,-26.9,26.1
2012-04-08 00:34:00,0.0,1.9201,0.0012,401.72,0.21,60.8,35.3,138.13,28.27,24.61,36.32,0.04,-272.73,-272.73,-51,554,-927,22.8,3.0,-24.4,22.8,3.1,-24.1,5.73,2.39,-27.0,25.9
2012-04-08 00:35:00,0.0,1.9202,0.0012,401.80,0.22,51.3,32.4,138.14,28.26,24.62,36.32,0.04,-272.74,-272.74,-51,554,-927,22.7,3.1,-24.5,22.8,3.2,-24.0,5.73,2.44,-27.1,25.7
2012-04-08 00:36:00,0.0,1.9217,0.0013,402.01,0.22,32.2,27.5,138.14,28.24,24.61,36.31,0.04,-272.73,-272.74,-51,553,-927,22.7,3.1,-24.5,22.7,3.2,-24.1,5.73,2.44,-27.2,25.5
2012-04-08 00:37:00,0.0,1.9230,0.0010,402.10,0.20,32.8,30.0,138.14,28.21,24.61,36.31,0.04,-272.73,-272.74,-52,553,-927,22.7,3.1,-24.5,22.7,3.2,-24.1,5.73,2.39,-27.4,25.4
2012-04-08 00:38:00,0.0,1.9223,0.0010,402.16,0.23,26.1,30.7,138.15,28.19,24.61,36.30,0.04,-272.74,-272.74,-52,553,-927,22.6,3.1,-24.4,22.6,3.2,-24.0,5.73,2.32,-27.5,25.5
2012-04-08 00:39:00,0.0,1.9209,0.0011,401.94,0.24,21.7,23.2,138.15,28.16,24.61,36.31,0.04,-272.74,-272.74,-52,553,-927,22.6,3.1,-24.3,22.5,3.2,-24.0,5.73,2.32,-27.5,26.1
2012-04-08 00:40:00,0.0,1.9215,0.0012,402.00,0.23,22.4,28.7,138.14,28.15,24.61,36.31,0.04,-272.73,-272.74,-51,552,-927,22.6,3.1,-24.3,22.6,3.2,-23.9,5.73,2.48,-27.4,26.5
2012-04-08 00:41:00,0.0,1.9223,0.0011,401.99,0.21,36.2,31.0,138.14,28.13,24.61,36.31,0.04,-272.73,-272.74,-52,552,-927,22.6,3.2,-24.2,22.6,3.3,-23.8,5.73,2.29,-27.3,26.7
2012-04-08 00:42:00,0.0,1.9223,0.0010,402.03,0.19,34.3,30.6,138.14,28.13,24.61,36.30,0.04,-272.74,-272.74,-51,552,-926,22.6,3.2,-24.1,22.6,3.3,-23.8,5.73,2.41,-27.2,26.9
2012-04-08 00:43:00,0.0,1.9232,0.0010,401.92,0.22,47.8,33.3,138.13,28.13,24.61,36.31,0.04,-272.74,-272.73,-52,553,-926,22.6,3.2,-24.1,22.7,3.3,-23.7,5.73,2.42,-27.1,27.1
2012-04-08 00:44:00,0.0,1.9231,0.0010,401.88,0.20,48.5,35.2,138.13,28.13,24.61,36.31,0.04,-272.73,-272.73,-53,552,-925,22.6,3.2,-24.1,22.7,3.3,-23.7,5.73,2.28,-27.1,27.2
2012-04-08 00:45:00,0.0,1.9224,0.0011,401.82,0.22,56.8,35.1,138.13,28.13,24.61,36.32,0.04,-272.73,-272.73,-52,552,-926,22.6,3.2,-24.0,22.7,3.3,-23.6,5.73,2.44,-27.0,27.3
2012-04-08 00:46:00,0.0,1.9223,0.0010,401.81,0.22,62.9,40.5,138.12,28.14,24.61,36.31,0.04,-272.74,-272.74,-51,552,-926,22.6,3.2,-23.9,22.7,3.3,-23.5,5.73,2.41,-26.9,27.4
2012-04-08 00:47:00,0.0,1.9222,0.0009,401.74,0.20,74.9,40.1,138.12,28.14,24.61,36.32,0.04,-272.74,-272.73,-51,552,-926,22.7,3.2,-23.9,22.7,3.3,-23.5,5.73,2.28,-26.8,27.4
2012-04-08 00:48:00,0.0,1.9216,0.0010,401.78,0.23,72.2,38.5,138.12,28.15,24.61,36.31,0.04,-272.73,-272.74,-52,552,-926,22.7,3.3,-23.8,22.8,3.3,-23.4,5.73,2.42,-26.8,27.5
2012-04-08 00:49:00,0.0,1.9193,0.0011,401.72,0.21,87.2,42.7,138.12,28.16,24.61,36.31,0.04,-272.73,-272.74,-51,552,-925,22.7,3.3,-23.8,22.8,3.4,-23.3,5.73,2.42,-26.7,27.5
2012-04-08 00:50:00,0.0,1.9188,0.0015,401.69,0.20,87.2,35.4,138.12,28.17,24.61,36.31,0.04,-272.73,-272.73,-51,552,-929,22.7,3.3,-23.8,22.8,3.4,-23.3,5.73,2.29,-26.6,27.6
2012-04-08 00:51:00,0.0,1.9202,0.0010,401.68,0.24,93.2,47.6,138.11,28.19,24.61,36.32,0.04,-272.73,-272.73,-52,552,-926,22.7,3.3,-23.8,22.8,3.4,-23.3,5.73,2.39,-26.6,27.6
2012-04-08 00:52:00,0.0,1.9190,0.0011,401.71,0.18,108.2,41.4,138.11,28.20,24.61,36.32,0.04,-272.74,-272.74,-51,552,-926,22.7,3.2,-23.8,22.9,3.3,-23.3,5.73,2.44,-26.5,27.7
2012-04-08 00:53:00,0.0,1.9201,0.0012,401.68,0.19,101.2,41.5,138.11,28.21,24.61,36.33,0.04,-272.74,-272.74,-51,553,-926,22.8,3.2,-23.8,22.9,3.3,-23.4,5.73,2.31,-26.5,27.8
2012-04-08 00:54:00,0.0,1.9190,0.0010,401.66,0.25,106.7,42.0,138.11,28.22,24.61,36.33,0.04,-272.74,-272.73,-51,552,-926,22.8,3.2,-23.8,22.9,3.3,-23.4,5.73,2.33,-26.4,27.8
2012-04-08 00:55:00,0.0,1.9194,0.0011,401.72,0.19,115.8,36.1,138.11,28.24,24.61,36.33,0.04,-272.74,-272.74,-51,553,-926,22.9,3.3,-23.7,22.9,3.4,-23.2,5.73,2.45,-26.4,27.9
2012-04-08 00:56:00,0.0,1.9195,0.0010,401.69,0.23,131.5,39.6,138.11,28.25,24.61,36.33,0.04,-272.74,-272.74,-51,553,-926,22.9,3.3,-23.6,23.0,3.4,-23.2,5.73,2.37,-26.3,27.9
2012-04-08 00:57:00,0.0,1.9200,0.0010,401.68,0.23,118.6,33.4,138.10,28.27,24.62,36.33,0.04,-272.73,-272.74,-51,553,-926,22.9,3.3,-23.6,23.0,3.4,-23.2,5.73,2.29,-26.3,28.0
2012-04-08 00:58:00,0.0,1.9214,0.0010,401.73,0.23,120.5,38.9,138.10,28.28,24.61,36.33,0.04,-272.73,-272.74,-51,553,-927,22.9,3.3,-23.5,23.0,3.4,-23.1,5.73,2.42,-26.2,27.9
2012-04-08 00:59:00,0.0,1.9212,0.0010,401.88,0.24,135.7,33.1,138.10,28.29,24.62,36.33,0.04,-272.74,-272.74,-51,553,-926,23.0,3.3,-23.5,23.1,3.4,-23.1,5.73,2.42,-26.1,28.0
2012-04-08 01:00:00,0.0,1.9203,0.0011,401.86,0.21,138.3,37.6,138.10,28.31,24.61,36.33,0.04,-272.73,-272.74,-51,553,-927,23.0,3.3,-23.5,23.1,3.4,-23.1,5.73,2.29,-26.1,28.0
2012-04-08 01:01:00,0.0,1.9197,0.0009,401.85,0.24,125.3,39.1,138.10,28.32,24.62,36.33,0.04,-272.73,-272.74,-51,554,-927,23.0,3.2,-23.6,23.1,3.4,-23.2,5.73,2.42,-26.1,27.4
2012-04-08 01:02:00,0.0,1.9199,0.0009,401.74,0.25,123.1,44.9,138.11,28.33,24.61,36.34,0.04,-272.73,-272.74,-51,554,-927,23.0,3.2,-23.8,23.1,3.3,-23.4,5.73,2.30,-26.2,27.0
2012-04-08 01:03:00,0.0,1.9191,0.0010,401.69,0.27,113.3,34.8,138.11,28.33,24.61,36.33,0.04,-272.74,-272.74,-52,554,-927,23.0,3.1,-24.0,23.1,3.2,-23.6,5.73,2.48,-26.3,26.6
2012-04-08 01:04:00,0.0,1.9190,0.0011,401.73,0.23,105.6,39.3,138.12,28.33,24.61,36.32,0.04,-272.73,-272.74,-52,554,-927,22.9,3.1,-24.2,23.0,3.2,-23.7,5.73,2.39,-26.4,26.3
2012-04-08 01:05:00,0.0,1.9190,0.0010,401.75,0.25,93.1,40.9,138.12,28.32,24.61,36.32,0.04,-272.74,-272.74,-51,554,-927,22.9,3.1,-24.3,22.9,3.2,-23.9,5.73,2.30,-26.6,26.1
2012-04-08 01:06:00,0.0,1.9190,0.0011,401.63,0.21,71.8,38.4,138.13,28.30,24.61,36.32,0.04,-272.74,-272.74,-51,554,-927,22.9,3.1,-24.3,22.9,3.2,-23.9,5.73,2.34,-26.7,25.9
2012-04-08 01:07:00,0.0,1.9188,0.0010,401.57,0.21,58.3,32.1,138.13,28.29,24.61,36.33,0.04,-272.74,-272.74,-51,553,-927,22.9,3.1,-24.4,22.8,3.2,-24.0,5.73,2.43,-26.8,25.7
2012-04-08 01:08:00,0.0,1.9192,0.0009,401.72,0.26,59.3,43.5,138.14,28.27,24.61,36.32,0.04,-272.74,-272.74,-51,554,-927,22.8,3.0,-24.4,22.8,3.2,-24.0,5.73,2.45,-26.9,25.6
2012-04-08 01:09:00,0.0,1.9188,0.0011,401.71,0.22,43.6,35.8,138.14,28.25,24.61,36.31,0.04,-272.74,-272.74,-51,553,-927,22.7,3.0,-24.5,22.7,3.1,-24.2,5.73,2.40,-27.0,25.6
2012-04-08 01:10:00,0.0,1.9189,0.0009,401.78,0.22,35.9,31.1,138.15,28.23,24.61,36.31,0.04,-272.73,-272.73,-52,553,-927,22.7,3.0,-24.6,22.7,3.1,-24.3,5.73,2.34,-27.1,25.4
2012-04-08 01:11:00,0.0,1.9182,0.0011,401.81,0.23,38.4,32.7,138.15,28.20,24.61,36.31,0.04,-272.73,-272.74,-52,553,-927,22.7,3.0,-24.6,22.7,3.1,-24.2,5.73,2.29,-27.2,26.0
2012-04-08 01:12:00,0.0,1.9179,0.0009,401.73,0.23,34.2,31.9,138.14,28.19,24.61,36.31,0.04,-272.74,-272.74,-51,553,-927,22.7,3.0,-24.6,22.7,3.1,-24.2,5.73,2.50,-27.2,26.4
2012-04-08 01:13:00,0.0,1.9186,0.0010,401.73,0.22,42.4,33.2,138.14,28.18,24.61,36.31,0.04,-272.73,-272.74,-52,552,-927,22.7,3.0,-24.5,22.7,3.1,-24.2,5.73,2.27,-27.1,26.7
2012-04-08 01:14:00,0.0,1.9186,0.0010,401.69,0.19,44.5,37.0,138.14,28.17,24.61,36.31,0.04,-272.73,-272.73,-51,553,-927,22.7,3.1,-24.4,22.7,3.2,-24.0,5.73,2.47,-27.0,26.9
2012-04-08 01:15:00,0.0,1.9184,0.0010,401.54,0.20,46.1,29.7,138.13,28.17,24.61,36.32,0.04,-272.73,-272.74,-52,553,-927,22.7,3.1,-24.3,22.7,3.2,-23.9,5.73,2.34,-26.9,27.1
2012-04-08 01:16:00,0.0,1.9185,0.0009,401.57,0.20,64.8,40.6,138.13,28.17,24.61,36.31,0.04,-272.74,-272.74,-51,553,-927,22.7,3.1,-24.4,22.8,3.2,-23.9,5.73,2.32,-26.8,27.2
2012-04-08 01:17:00,0.0,1.9182,0.0011,401.49,0.24,65.2,37.4,138.12,28.17,24.61,36.32,0.04,-272.73,-272.74,-51,554,-926,22.7,3.1,-24.3,22.8,3.2,-23.9,5.73,2.46,-26.7,27.3
2012-04-08 01:18:00,0.0,1.9183,0.0009,401.53,0.22,74.9,36.4,138.12,28.18,24.62,36.32,0.04,-272.74,-272.73,-51,554,-926,22.7,3.1,-24.3,22.8,3.2,-23.9,5.73,2.35,-26.6,27.4
2012-04-08 01:19:00,0.0,1.9185,0.0010,401.67,0.22,88.5,43.0,138.12,28.19,24.61,36.31,0.04,-272.74,-272.74,-51,554,-927,22.8,3.1,-24.3,22.8,3.2,-23.9,5.73,2.31,-26.5,27.5
2012-04-08 01:20:00,0.0,1.9185,0.0011,401.56,0.22,88.3,39.9,138.12,28.19,24.61,36.32,0.04,-272.74,-272.74,-51,553,-927,22.8,3.1,-24.2,22.9,3.2,-23.9,5.73,2.45,-26.5,27.6
2012-04-08 01:21:00,0.0,1.9185,0.0011,401.46,0.22,98.0,38.5,138.12,28.20,24.61,36.32,0.04,-272.74,-272.73,-51,553,-926,22.8,3.1,-24.2,22.9,3.2,-23.8,5.73,2.39,-26.4,27.6
2012-04-08 01:22:00,0.0,1.9187,0.0010,401.49,0.20,99.3,31.7,138.11,28.22,24.61,36.33,0.04,-272.74,-272.74,-51,553,-927,22.9,3.1,-24.1,22.9,3.2,-23.7,5.73,2.29,-26.3,27.7
2012-04-08 01:23:00,0.0,1.9185,0.0010,401.55,0.24,113.1,42.7,138.11,28.23,24.61,36.32,0.04,-272.74,-272.74,-51,553,-926,22.9,3.1,-24.1,22.9,3.2,-23.7,5.73,2.41,-26.3,27.7
2012-04-08 01:24:00,0.0,1.9190,0.0010,401.56,0.22,110.5,41.9,138.11,28.24,24.61,36.32,0.04,-272.73,-272.74,-51,553,-926,22.9,3.1,-24.1,23.0,3.2,-23.7,5.73,2.42,-26.2,27.8
2012-04-08 01:25:00,0.0,1.9190,0.0009,401.55,0.19,115.8,41.4,138.11,28.26,24.61,36.33,0.04,-272.74,-272.73,-51,553,-927,22.9,3.1,-24.1,23.0,3.2,-23.7,5.73,2.30,-26.2,27.8
2012-04-08 01:26:00,0.0,1.9193,0.0010,401.64,0.25,125.6,39.1,138.11,28.27,24.61,36.32,0.04,-272.74,-272.74,-51,553,-926,22.9,3.1,-24.1,23.0,3.2,-23.7,5.73,2.36,-26.1,27.9
2012-04-08 01:27:00,0.0,1.9195,0.0009,401.60,0.23,120.5,40.2,138.10,28.29,24.61,36.33,0.04,-272.73,-272.74,-50,553,-926,23.0,3.1,-24.1,23.1,3.2,-23.7,5.73,2.45,-26.1,27.9
2012-04-08 01:28:00,0.0,1.9194,0.0010,401.62,0.21,131.8,36.5,138.10,28.30,24.62,36.33,0.04,-272.73,-272.74,-51,553,-926,23.0,3.0,-24.3,23.1,3.2,-23.9,5.73,2.34,-26.0,27.9
2012-04-08 01:29:00,0.0,1.9200,0.0010,401.73,0.26,154.4,35.4,138.10,28.32,24.61,36.32,0.04,-272.74,-272.74,-51,553,-926,23.0,3.0,-24.4,23.1,3.1,-24.0,5.73,2.30,-25.9,27.9
2012-04-08 01:30:00,0.0,1.9205,0.0011,401.72,0.23,145.5,30.9,138.10,28.34,24.61,36.33,0.04,-272.73,-272.74,-50,553,-926,23.1,3.0,-24.4,23.1,3.1,-24.0,5.73,2.45,-25.9,27.9
2012-04-08 01:31:00,0.0,1.9201,0.0009,401.66,0.20,145.6,40.9,138.10,28.35,24.61,36.33,0.04,-272.74,-272.74,-51,554,-927,23.1,3.0,-24.4,23.2,3.1,-24.0,5.73,2.33,-25.9,27.4
2012-04-08 01:32:00,0.0,1.9201,0.0009,401.70,0.24,143.3,40.9,138.11,28.36,24.62,36.33,0.04,-272.74,-272.74,-51,554,-927,23.1,3.0,-24.3,23.1,3.1,-23.9,5.73,2.45,-26.0,26.9
2012-04-08 01:33:00,0.0,1.9199,0.0010,401.69,0.24,126.4,35.9,138.11,28.36,24.61,36.33,0.04,-272.74,-272.74,-51,554,-927,23.1,3.0,-24.3,23.1,3.2,-23.8,5.73,2.27,-26.1,26.6
2012-04-08 01:34:00,0.0,1.9193,0.0010,401.59,0.21,113.0,39.8,138.12,28.36,24.61,36.33,0.04,-272.73,-272.74,-51,554,-927,23.1,3.1,-24.3,23.1,3.1,-23.9,5.73,2.37,-26.2,26.4
2012-04-08 01:35:00,0.0,1.9192,0.0009,401.76,0.22,109.0,33.0,138.12,28.35,24.61,36.32,0.04,-272.74,-272.74,-51,555,-927,23.0,3.1,-24.3,23.0,3.1,-24.0,5.73,2.47,-26.3,26.1
2012-04-08 01:36:00,0.0,1.9188,0.0009,401.64,0.20,95.3,40.0,138.13,28.34,24.62,36.32,0.04,-272.74,-272.74,-51,554,-927,23.0,3.1,-24.3,23.0,3.2,-23.9,5.73,2.41,-26.5,26.0
2012-04-08 01:37:00,0.0,1.9194,0.0010,401.59,0.23,70.4,35.8,138.13,28.33,24.61,36.33,0.04,-272.73,-272.74,-51,554,-927,22.9,3.1,-24.3,22.9,3.2,-23.9,5.73,2.32,-26.6,25.8
2012-04-08 01:38:00,0.0,1.9189,0.0011,401.64,0.22,63.2,36.7,138.13,28.31,24.62,36.32,0.04,-272.73,-272.73,-51,555,-928,22.9,3.1,-24.2,22.9,3.2,-23.9,5.73,2.31,-26.7,25.6
2012-04-08 01:39:00,0.0,1.9188,0.0010,401.63,0.21,54.8,36.7,138.14,28.29,24.62,36.32,0.04,-272.74,-272.74,-51,554,-927,22.9,3.1,-24.2,22.8,3.2,-23.8,5.73,2.37,-26.8,25.5
2012-04-08 01:40:00,0.0,1.9193,0.0009,401.68,0.20,43.1,29.2,138.14,28.27,24.61,36.32,0.04,-272.73,-272.73,-51,553,-927,22.8,3.1,-24.1,22.8,3.2,-23.8,5.73,2.44,-26.9,25.3
2012-04-08 01:41:00,0.0,1.9186,0.0011,401.70,0.24,47.7,32.0,138.15,28.24,24.61,36.31,0.04,-272.74,-272.73,-52,554,-927,22.8,3.1,-24.1,22.7,3.3,-23.8,5.73,2.45,-26.9,25.7
2012-04-08 01:42:00,0.0,1.9185,0.0010,401.75,0.23,46.3,38.4,138.14,28.23,24.61,36.31,0.04,-272.74,-272.74,-52,553,-927,22.8,3.1,-24.1,22.7,3.3,-23.8,5.73,2.26,-26.9,26.2
2012-04-08 01:43:00,0.0,1.9186,0.0008,401.66,0.27,51.2,38.4,138.14,28.21,24.61,36.32,0.04,-272.74,-272.74,-51,553,-927,22.8,3.2,-24.0,22.7,3.3,-23.7,5.73,2.48,-26.9,26.6
2012-04-08 01:44:00,0.0,1.9186,0.0009,401.72,0.24,62.5,33.8,138.13,28.21,24.61,36.31,0.04,-272.74,-272.74,-52,553,-927,22.8,3.2,-23.9,22.8,3.3,-23.6,5.73,2.27,-26.8,26.9
2012-04-08 01:45:00,0.0,1.9187,0.0008,401.56,0.22,67.7,41.9,138.13,28.20,24.61,36.31,0.04,-272.73,-272.74,-51,553,-927,22.8,3.2,-23.8,22.8,3.3,-23.5,5.73,2.45,-26.7,27.0
2012-04-08 01:46:00,0.0,1.9186,0.0012,401.50,0.18,68.8,37.9,138.13,28.21,24.61,36.32,0.04,-272.74,-272.74,-51,553,-927,22.8,3.2,-23.9,22.8,3.3,-23.5,5.73,2.37,-26.6,27.2
2012-04-08 01:47:00,0.0,1.9186,0.0010,401.40,0.23,76.2,41.8,138.12,28.21,24.61,36.33,0.04,-272.74,-272.74,-51,553,-926,22.9,3.2,-23.9,22.9,3.3,-23.5,5.73,2.29,-26.5,27.3
2012-04-08 01:48:00,0.0,1.9189,0.0010,401.44,0.23,95.0,34.3,138.12,28.22,24.61,36.32,0.04,-272.73,-272.74,-51,553,-927,22.9,3.2,-23.8,22.9,3.3,-23.4,5.73,2.45,-26.4,27.4
2012-04-08 01:49:00,0.0,1.9188,0.0009,401.47,0.20,91.4,36.9,138.12,28.23,24.61,36.32,0.04,-272.74,-272.74,-51,553,-926,22.9,3.2,-23.7,22.9,3.4,-23.3,5.73,2.39,-26.4,27.5
2012-04-08 01:50:00,0.0,1.9187,0.0008,401.49,0.22,100.0,37.5,138.11,28.24,24.61,36.32,0.04,-272.74,-272.73,-51,553,-926,22.9,3.2,-23.7,22.9,3.4,-23.2,5.73,2.29,-26.3,27.6
2012-04-08 01:51:00,0.0,1.9186,0.0010,401.48,0.21,116.5,34.9,138.11,28.25,24.61,36.33,0.04,-272.73,-272.73,-51,553,-927,22.9,3.2,-23.7,23.0,3.3,-23.3,5.73,2.41,-26.2,27.7
2012-04-08 01:52:00,0.0,1.9188,0.0010,401.53,0.23,110.9,38.8,138.11,28.26,24.61,36.33,0.04,-272.74,-272.74,-51,553,-926,23.0,3.2,-23.7,23.0,3.3,-23.3,5.73,2.43,-26.2,27.7
2012-04-08 01:53:00,0.0,1.9189,0.0012,401.56,0.21,119.1,41.9,138.11,28.28,24.61,36.33,0.04,-272.73,-272.74,-51,553,-926,23.0,3.2,-23.8,23.0,3.3,-23.4,5.73,2.30,-26.1,27.8
2012-04-08 01:54:00,0.0,1.9192,0.0012,401.61,0.22,132.0,38.0,138.11,28.29,24.61,36.33,0.04,-272.73,-272.74,-51,554,-926,23.0,3.2,-23.9,23.1,3.3,-23.4,5.73,2.35,-26.0,27.9
2012-04-08 01:55:00,0.0,1.9195,0.0010,401.66,0.20,126.5,39.1,138.10,28.31,24.61,36.32,0.04,-272.73,-272.74,-51,554,-926,23.1,3.1,-23.9,23.1,3.2,-23.5,5.73,2.45,-26.0,27.9
2012-04-08 01:56:00,0.0,1.9199,0.0008,401.69,0.20,144.7,39.9,138.10,28.32,24.61,36.33,0.04,-272.73,-272.74,-51,553,-926,23.1,3.1,-23.9,23.1,3.2,-23.5,5.73,2.34,-25.9,28.0
2012-04-08 01:57:00,0.0,1.9200,0.0010,401.61,0.23,143.7,36.2,138.10,28.34,24.61,36.33,0.04,-272.74,-272.74,-51,554,-926,23.1,3.1,-24.0,23.2,3.2,-23.6,5.73,2.31,-25.9,28.0
2012-04-08 01:58:00,0.0,1.9208,0.0010,401.70,0.25,144.0,34.5,138.10,28.36,24.61,36.33,0.04,-272.74,-272.74,-51,554,-926,23.1,3.1,-24.0,23.2,3.2,-23.6,5.73,2.43,-25.8,28.1
2012-04-08 01:59:00,0.0,1.9208,0.0009,401.66,0.23,159.2,36.0,138.10,28.37,24.61,36.33,0.04,-272.73,-272.74,-51,554,-926,23.2,3.1,-24.1,23.2,3.1,-23.8,5.73,2.39,-25.8,27.9
2012-04-08 02:00:00,0.0,1.9206,0.0011,401.75,0.22,149.5,32.0,138.10,28.39,24.62,36.33,0.04,-272.74,-272.74,-51,554,-927,23.2,3.1,-24.1,23.2,3.2,-23.8,5.73,2.30,-25.8,27.3
2012-04-08 02:01:00,0.0,1.9203,0.0011,401.81,0.19,137.3,36.4,138.11,28.40,24.61,36.32,0.04,-272.73,-272.73,-51,555,-927,23.2,3.1,-24.0,23.2,3.2,-23.6,5.73,2.40,-25.9,26.8
2012-04-08 02:02:00,0.0,1.9201,0.0010,401.75,0.22,137.5,39.6,138.11,28.40,24.62,36.32,0.04,-272.73,-272.73,-51,555,-927,23.2,3.1,-23.9,23.2,3.2,-23.5,5.73,2.45,-26.0,26.5
2012-04-08 02:03:00,0.0,1.9195,0.0010,401.73,0.20,124.6,33.4,138.11,28.40,24.61,36.32,0.04,-272.74,-272.74,-51,555,-927,23.1,3.1,-23.9,23.1,3.3,-23.5,5.73,2.30,-26.1,26.3
2012-04-08 02:04:00,0.0,1.9193,0.0010,401.62,0.27,98.4,37.5,138.12,28.39,24.61,36.33,0.04,-272.73,-272.74,-51,555,-927,23.1,3.1,-24.0,23.1,3.2,-23.6,5.73,2.33,-26.2,26.3
2012-04-08 02:05:00,0.0,1.9194,0.0010,401.59,0.20,97.5,39.5,138.12,28.37,24.62,36.32,0.04,-272.73,-272.73,-51,555,-927,23.1,3.1,-24.1,23.0,3.2,-23.8,5.73,2.45,-26.3,26.0
2012-04-08 02:06:00,0.0,1.9193,0.0009,401.58,0.20,90.4,43.2,138.13,28.36,24.61,36.32,0.04,-272.74,-272.74,-51,555,-927,23.0,3.1,-24.1,23.0,3.2,-23.7,5.73,2.44,-26.5,25.8
2012-04-08 02:07:00,0.0,1.9195,0.0011,401.62,0.22,65.9,32.8,138.13,28.34,24.61,36.32,0.04,-272.74,-272.74,-51,554,-927,23.0,3.1,-24.1,22.9,3.2,-23.7,5.73,2.34,-26.5,25.6
2012-04-08 02:08:00,0.0,1.9195,0.0010,401.71,0.23,62.8,39.2,138.14,28.32,24.61,36.32,0.04,-272.74,-272.74,-51,554,-927,22.9,3.1,-24.0,22.9,3.3,-23.6,5.73,2.30,-26.6,25.6
2012-04-08 02:09:00,0.0,1.9194,0.0010,401.69,0.22,53.0,30.3,138.14,28.30,24.61,36.32,0.04,-272.73,-272.74,-52,554,-927,22.9,3.2,-24.0,22.8,3.3,-23.6,5.73,2.36,-26.7,25.6
2012-04-08 02:10:00,0.0,1.9195,0.0012,401.79,0.18,51.4,40.4,138.14,28.28,24.61,36.31,0.04,-272.74,-272.74,-52,554,-927,22.9,3.2,-23.9,22.8,3.3,-23.6,5.73,2.48,-26.8,25.8
2012-04-08 02:11:00,0.0,1.9192,0.0010,401.71,0.19,56.3,32.5,138.14,28.27,24.61,36.32,0.04,-272.73,-272.74,-51,554,-927,22.9,3.2,-23.9,22.8,3.3,-23.5,5.73,2.35,-26.8,26.3
2012-04-08 02:12:00,0.0,1.9193,0.0010,401.65,0.24,58.3,34.0,138.14,28.26,24.61,36.32,0.04,-272.74,-272.73,-51,553,-927,22.9,3.2,-24.0,22.8,3.3,-23.6,5.73,2.39,-26.8,26.7
2012-04-08 02:13:00,0.0,1.9192,0.0010,401.60,0.19,61.9,38.5,138.13,28.25,24.61,36.32,0.04,-272.74,-272.73,-52,554,-927,22.9,3.2,-23.9,22.9,3.3,-23.6,5.73,2.31,-26.6,26.9
2012-04-08 02:14:00,0.0,1.9192,0.0010,401.48,0.26,77.5,37.3,138.13,28.25,24.61,36.32,0.04,-272.74,-272.74,-52,553,-927,22.9,3.2,-23.9,22.9,3.3,-23.5,5.73,2.47,-26.5,27.1
2012-04-08 02:15:00,0.0,1.9186,0.0009,401.52,0.20,80.6,35.3,138.12,28.25,24.61,36.32,0.04,-272.74,-272.73,-51,553,-927,22.9,3.2,-23.9,22.9,3.3,-23.5,5.73,2.33,-26.4,27.3
2012-04-08 02:16:00,0.0,1.9185,0.0010,401.40,0.20,97.9,42.8,138.12,28.26,24.62,36.33,0.04,-272.73,-272.74,-52,554,-927,22.9,3.2,-23.9,22.9,3.3,-23.5,5.73,2.32,-26.4,27.4
2012-04-08 02:17:00,0.0,1.9184,0.0011,401.34,0.20,98.4,44.4,138.12,28.27,24.61,36.33,0.04,-272.74,-272.74,-51,553,-927,23.0,3.2,-23.9,23.0,3.3,-23.5,5.73,2.45,-26.3,27.5